AO-07 1 07530U 74089B 25185.86494838 -.00000041 00000-0 35948-4 0 9993 2 07530 101.9930 190.3981 0012628 74.5883 359.7174 12.53689898316998 AO-27 1 22825U 93061C 25185.88230345 .00000068 00000-0 43012-4 0 9990 2 22825 98.7355 247.5627 0009124 45.0272 315.1648 14.30806355657334 FO-29 1 24278U 96046B 25186.18540680 -.00000050 00000-0 -11531-4 0 9994 2 24278 98.5727 76.7061 0348843 276.2946 79.8576 13.53250106426488 ISS 1 25544U 98067A 25186.50618345 .00006730 00000-0 12412-3 0 9993 2 25544 51.6343 216.2777 0002492 336.9059 23.1817 15.50384048518002 SO-50 1 27607U 02058C 25186.20102822 .00001235 00000-0 17048-3 0 9990 2 27607 64.5526 121.4450 0059190 328.4176 31.3382 14.81687459213238 AO-73 1 39444U 13066AE 25185.85411284 .00005758 00000-0 42928-3 0 9997 2 39444 97.7798 147.8688 0041114 302.0989 57.6247 15.02610135627388 IO-86 1 40931U 15052B 25151.18580175 .00001241 00000-0 78118-4 0 9996 2 40931 6.0006 24.0987 0012733 338.8432 21.1169 14.78805930523047 AO-91 1 43017U 17073E 25185.86031440 .00008741 00000-0 44222-3 0 9997 2 43017 97.5219 55.9915 0172959 80.6060 281.4673 15.05073897413012 PO-101 1 43678U 18084H 25186.49925652 .00002019 00000-0 17446-3 0 9990 2 43678 98.1036 3.6133 0008416 189.4719 170.6345 14.98417969364266 QO-100 1 43700U 18090A 25185.92719436 .00000159 00000-0 00000-0 0 9999 2 43700 0.0139 63.4793 0002418 73.0109 146.2472 1.00272970 24196 JO-97 1 43803U 18099AX 25185.58281758 .00010062 00000-0 45237-3 0 9993 2 43803 97.4650 244.4411 0008632 65.8356 294.3781 15.21290718360574 RS-44 1 44909U 19096E 25185.80614974 .00000017 00000-0 30675-4 0 9994 2 44909 82.5196 210.5181 0216439 236.4324 121.5946 12.79741560257910 CSS 1 48274U 21035A 25186.38481629 .00021897 00000-0 28947-3 0 9999 2 48274 41.4651 270.1895 0013324 224.6234 135.3532 15.57719524238995 HO-113 1 50466U 21131B 25186.52486040 .00000403 00000-0 13962-3 0 9991 2 50466 98.5107 275.7513 0005236 67.7012 292.4731 14.40839215185180 MO-122 1 60209U 24125G 25186.55934665 .00015128 00000-0 41898-3 0 9996 2 60209 97.2775 37.8968 0019454 48.7088 311.5828 15.36872111 55941 AO-123 1 61781U 24199AY 25186.56984444 .00005739 00000-0 20784-3 0 9992 2 61781 97.3524 53.9866 0017525 104.5542 255.7643 15.28640494 80859 SO-124 1 62690U 25009CK 25185.20292489 .00032888 00000-0 11124-2 0 9996 2 62690 97.4088 265.9361 0002138 41.0608 319.0794 15.30549990 25911 SO-125 1 63492U 25052BN 25186.17873404 .00023981 00000-0 99464-3 0 9992 2 63492 97.4297 80.0185 0009698 288.9467 71.0719 15.23824882 17154 NO-44 1 26931U 01043C 25185.93364141 .00000094 00000-0 66244-4 0 9990 2 26931 67.0512 62.2879 0006187 276.8164 83.2234 14.31744787240738 IO-117 1 53106U 22080B 25119.54530882 -.00000003 00000-0 00000+0 0 9993 2 53106 70.1441 82.5809 0008360 32.9040 327.2139 6.42557753 65597 SONATE-2 1 59112U 24043Q 25185.89977154 .00013205 00000-0 37286-3 0 9992 2 59112 97.5159 317.6020 0011123 31.0624 329.1275 15.36441366 74222